Regional Weather Roundup
Issued by NWS

Home | Current Version | Previous Version | Text Only | Print | Product List | Glossary On
Versions: 1 2 3 4 5 6 7 8 9 10 11 12 13 14 15 16 17 18 19 20 21 22 23 24 25 26 27 28 29 30 31 32 33 34 35 36 37 38 39 40 41 42 43 44 45 46 47 48 49 50
355
ASUS45 KABQ 010810
RWRNM
NEW MEXICO REGIONAL WEATHER ROUNDUP
NATIONAL WEATHER SERVICE ALBUQUERQUE NM
200 AM MDT WED JUN 01 2016

NOTE: "FAIR" MEANS FEW OR NO CLOUDS BELOW 12,000 FEET AGL WITH NO
       SIGNIFICANT WEATHER OR OBSTRUCTIONS TO VISION.

      THIS PRODUCT IS RELEASED AS TWO VERSIONS.  ONE VERSION NEAR
      THE TOP OF THE HOUR CONTAINING PRELIMINARY DATA FROM ALBUQUERQUE
      AND OTHER STATIONS.  A FINAL VERSION WITH ADDITIONAL DATA IS
      ISSUED ABOUT 10 MINUTES AFTER THE HOUR.

NMZ501-503-504-510>518-010900-
NORTHWEST PLATEAU/NORTHCENTRAL MOUNTAINS

CITY           SKY/WX    TMP DP  RH WIND       PRES   REMARKS
FARMINGTON     FAIR      63  34  33 E12       30.00R
LOS ALAMOS     FAIR      53  37  55 SW12      30.20R
SANTA FE       FAIR      53  41  63 S10       30.15R
TAOS           FAIR      54  32  43 S8        30.18S
ANGEL FIRE     CLOUDY    41  38  89 CALM      30.27F

$$
NMZ402-403-502-505>509-010900-
WESTCENTRAL MOUNTAINS/SOUTHWEST MOUNTAINS

CITY           SKY/WX    TMP DP  RH WIND       PRES   REMARKS
GALLUP         FAIR      53  29  39 CALM      30.08R
GRANTS         FAIR      51  38  60 S6        30.12R
SILVER CITY      N/A     59  34  38 NW5       30.06S

$$
NMZ407-409-411-412-010900-
SOUTHERN DESERTS

CITY           SKY/WX    TMP DP  RH WIND       PRES   REMARKS
LORDSBURG      CLOUDY    70  32  24 SE13G20   29.98R THUNDER
DEMING         MOCLDY    61  44  53 E3        29.98F
LAS CRUCES     FAIR      62  40  43 NE7       30.00S
HOLLOMAN AFB   FAIR      64  47  53 W2        29.98R
ALAMOGORDO     FAIR      64  46  52 S6        30.00R
T OR C         FAIR      65  44  46 CALM      30.00S

$$
NMZ519>523-010900-
CENTRAL VALLEYS/CENTRAL HIGHLANDS

CITY           SKY/WX    TMP DP  RH WIND       PRES   REMARKS
ALBUQUERQUE    MOCLDY    61  41  47 E20G25    30.08R
DOUBLE EAGLE   FAIR      57  41  55 SE17      30.11S
MORIARTY ARPT  FAIR      44  38  82 NW3       30.19R
CLINES CORNERS FAIR      46  43  89 E6        30.18R
BELEN          FAIR      57  38  48 NW9       30.07S
SOCORRO        FAIR      61  40  45 CALM      30.06S

$$
NMZ524>526-539-540-010900-
SOUTHCENTRAL MOUNTAINS

CITY           SKY/WX    TMP DP  RH WIND       PRES   REMARKS
RUIDOSO          N/A     48  43  81 S7        30.20R

$$
NMZ527>531-010900-
NORTHEAST HIGHLANDS/NORTHEAST PLAINS

CITY           SKY/WX    TMP DP  RH WIND       PRES   REMARKS
LAS VEGAS      CLOUDY    46  41  82 N8        30.20R
RATON          CLOUDY    51  44  77 N9        30.18S
CLAYTON        TSTM      54  53  97 NE5       30.14F FOG

$$
NMZ532>537-010900-
EASTCENTRAL PLAINS

CITY           SKY/WX    TMP DP  RH WIND       PRES   REMARKS
TUCUMCARI      CLOUDY    59  56  89 CALM      30.07R
CANNON AFB     CLOUDY    58  58 100 E7        30.06R
CLOVIS AIRPORT CLOUDY    57  52  82 E14       30.05F

$$
NMZ028-029-538-010900-
SOUTHEAST PLAINS

CITY           SKY/WX    TMP DP  RH WIND       PRES   REMARKS
ROSWELL        FAIR      58  51  78 N7        30.04R
ARTESIA        FAIR      59  57  94 NW14      30.03S
CARLSBAD       FAIR      59  54  83 W8        30.00R
HOBBS          FAIR      59  59 100 NE13      30.03R


$$




USA.gov is the U.S. government's official web portal to all federal, state and local government web resources and services.